Location: Madrid
(40.4167°N, 3.7036°W)
Time: 02:34:56
(UTC+00:00)

ISS - Pass Details

Date: 12 May 2026
Orbit: 414 x 424 km, 51.6° (Epoch: 15 May)

Event Time Altitude Azimuth Distance (km) Brightness Sun altitude
Rises 22:05:42 0° 297° (WNW) 2,351 1.0 -24.4°
Reaches altitude 10° 22:08:49 10° 329° (NNW) 1,490 0.1 -24.7°
Maximum altitude 22:10:18 12° 356° (N) 1,354 -0.4 -24.9°
Drops below altitude 10° 22:11:48 10° 22° (NNE) 1,492 -0.5 -25.0°
Enters shadow 22:13:26 - 43° (NE) 1,885 -0.3 -25.2°
